Laconia, New Hampshire, United States (03246)
Lat: 43.53N, Lon: 71.47W
Wx Zone: NHZ009
Local Info
Past Weather Observations for Tuesday, December 16, 2014

NOTE: This archive is for the closest National Weather Service station to Laconia. Information may differ from the station used for current weather conditions.

Click here for Long-term Archive

Time Weather Temperature Dewpoint Humidity Pressure Winds Precip Visibility
23:55
Overcast
36°F / 2°C 34°F / 1°C 93% 29.95 in
(1014 mb)
NNE 4.6 mph
(NNE 7 kph)
- 3SM
23:35
Overcast
36°F / 2°C 34°F / 1°C 93% 29.95 in
(1014 mb)
ENE 4.6 mph
(ENE 7 kph)
- 4SM
23:15
Overcast
36°F / 2°C 32°F / 0°C 87% 29.95 in
(1014 mb)
ENE 4.6 mph
(ENE 7 kph)
- 3SM
22:55
Overcast
34°F / 1°C 32°F / 0°C 93% 29.95 in
(1014 mb)
Calm - 2SM
22:35
Overcast
34°F / 1°C 30°F / -1°C 87% 29.98 in
(1015 mb)
Calm - 1 3/4SM
22:15
Overcast
34°F / 1°C 32°F / 0°C 93% 29.98 in
(1015 mb)
Calm - 2SM
21:55
Overcast
34°F / 1°C 30°F / -1°C 87% 29.98 in
(1015 mb)
Calm - 3SM
21:35
Overcast
34°F / 1°C 30°F / -1°C 87% 29.98 in
(1015 mb)
Calm - 3SM
21:15
Overcast
34°F / 1°C 30°F / -1°C 87% 29.98 in
(1015 mb)
Calm - 2 1/2SM
20:55
Overcast
34°F / 1°C 30°F / -1°C 87% 30.01 in
(1016 mb)
Calm - 3SM
20:35
Overcast
34°F / 1°C 30°F / -1°C 87% 30.01 in
(1016 mb)
Calm - 3SM
20:15
Overcast
34°F / 1°C 30°F / -1°C 87% 30.01 in
(1016 mb)
SSW 3.5 mph
(SSW 6 kph)
- 7SM
17:55
Overcast
34°F / 1°C 30°F / -1°C 87% 30.01 in
(1016 mb)
Calm - 10SM
17:35
Overcast
34°F / 1°C 30°F / -1°C 87% 30.04 in
(1017 mb)
Calm - 10SM
17:15
Overcast
34°F / 1°C 30°F / -1°C 87% 30.04 in
(1017 mb)
Calm - 10SM
16:55
Overcast
36°F / 2°C 30°F / -1°C 81% 30.04 in
(1017 mb)
Calm - 10SM
16:35
Overcast
36°F / 2°C 30°F / -1°C 81% 30.04 in
(1017 mb)
Calm - 10SM
16:15
Overcast
36°F / 2°C 28°F / -2°C 75% 30.04 in
(1017 mb)
Calm - 10SM
15:35
Overcast
36°F / 2°C 30°F / -1°C 81% 30.04 in
(1017 mb)
Calm - 10SM
15:15
Overcast
36°F / 2°C 30°F / -1°C 81% 30.04 in
(1017 mb)
E 3.5 mph
(E 6 kph)
- 10SM
14:55
Overcast
36°F / 2°C 30°F / -1°C 81% 30.04 in
(1017 mb)
Calm - 10SM
14:35
Overcast
36°F / 2°C 30°F / -1°C 81% 30.04 in
(1017 mb)
Calm - 10SM
14:15
Overcast
36°F / 2°C 30°F / -1°C 81% 30.04 in
(1017 mb)
NW 3.5 mph
(NW 6 kph)
- 10SM
13:55
Overcast
36°F / 2°C 30°F / -1°C 81% 30.04 in
(1017 mb)
Calm - 10SM
13:35
Overcast
36°F / 2°C 30°F / -1°C 81% 30.06 in
(1018 mb)
NNW 3.5 mph
(NNW 6 kph)
- 10SM
13:15
Overcast
37°F / 3°C 30°F / -1°C 75% 30.06 in
(1018 mb)
NW 3.5 mph
(NW 6 kph)
- 10SM
12:55
Overcast
36°F / 2°C 30°F / -1°C 81% 30.06 in
(1018 mb)
Calm - 10SM
12:35
Overcast
36°F / 2°C 28°F / -2°C 75% 30.06 in
(1018 mb)
Calm - 10SM
12:15
Overcast
36°F / 2°C 30°F / -1°C 81% 30.06 in
(1018 mb)
Calm - 10SM
11:55
Overcast
36°F / 2°C 30°F / -1°C 81% 30.09 in
(1019 mb)
Calm - 10SM
11:35
Overcast
36°F / 2°C 28°F / -2°C 75% 30.09 in
(1019 mb)
Calm - 10SM
11:15
Overcast
34°F / 1°C 28°F / -2°C 81% 30.09 in
(1019 mb)
Calm - 10SM
10:55
Overcast
34°F / 1°C 28°F / -2°C 81% 30.09 in
(1019 mb)
Calm - 10SM
10:35
Overcast
34°F / 1°C 28°F / -2°C 81% 30.12 in
(1020 mb)
Calm - 10SM
10:15
Overcast
34°F / 1°C 28°F / -2°C 81% 30.12 in
(1020 mb)
Calm - 10SM
09:55
Overcast
34°F / 1°C 27°F / -3°C 75% 30.12 in
(1020 mb)
Calm - 10SM
09:35
Overcast
32°F / 0°C 27°F / -3°C 80% 30.12 in
(1020 mb)
Calm - 10SM
09:15
Overcast
34°F / 1°C 27°F / -3°C 75% 30.12 in
(1020 mb)
Calm - 10SM
08:55
Overcast
32°F / 0°C 27°F / -3°C 80% 30.12 in
(1020 mb)
Calm - 10SM
08:35
Overcast
30°F / -1°C 27°F / -3°C 86% 30.12 in
(1020 mb)
Calm - 10SM
08:15
Overcast
30°F / -1°C 27°F / -3°C 86% 30.12 in
(1020 mb)
Calm - 10SM
07:55
Overcast
30°F / -1°C 27°F / -3°C 86% 30.12 in
(1020 mb)
Calm - 10SM
07:35
Overcast
30°F / -1°C 27°F / -3°C 86% 30.12 in
(1020 mb)
Calm - 10SM
07:15
Overcast
30°F / -1°C 27°F / -3°C 86% 30.12 in
(1020 mb)
Calm - 10SM
06:55
Overcast
30°F / -1°C 27°F / -3°C 86% 30.12 in
(1020 mb)
Calm - 10SM
06:35
Overcast
30°F / -1°C 25°F / -4°C 80% 30.09 in
(1019 mb)
Calm - 10SM
06:15
Overcast
30°F / -1°C 27°F / -3°C 86% 30.09 in
(1019 mb)
Calm - 10SM
05:55
Overcast
28°F / -2°C 25°F / -4°C 86% 30.12 in
(1020 mb)
Calm - 10SM
05:35
Overcast
30°F / -1°C 25°F / -4°C 80% 30.12 in
(1020 mb)
Calm - 10SM
05:15
Overcast
30°F / -1°C 25°F / -4°C 80% 30.09 in
(1019 mb)
Calm - 10SM
04:55
Overcast
28°F / -2°C 25°F / -4°C 86% 30.09 in
(1019 mb)
Calm - 10SM
04:35
Overcast
28°F / -2°C 25°F / -4°C 86% 30.09 in
(1019 mb)
Calm - 10SM
04:15
Overcast
28°F / -2°C 25°F / -4°C 86% 30.12 in
(1020 mb)
Calm - 10SM
03:55
Overcast
28°F / -2°C 25°F / -4°C 86% 30.12 in
(1020 mb)
Calm - 10SM
03:35
Overcast
28°F / -2°C 25°F / -4°C 86% 30.12 in
(1020 mb)
Calm - 10SM
03:15
Overcast
28°F / -2°C 25°F / -4°C 86% 30.12 in
(1020 mb)
Calm - 10SM
02:55
Overcast
28°F / -2°C 25°F / -4°C 86% 30.12 in
(1020 mb)
Calm - 10SM
02:35
Overcast
28°F / -2°C 25°F / -4°C 86% 30.12 in
(1020 mb)
Calm - 10SM
02:15
Overcast
28°F / -2°C 25°F / -4°C 86% 30.12 in
(1020 mb)
Calm - 10SM
01:55
Overcast
28°F / -2°C 25°F / -4°C 86% 30.12 in
(1020 mb)
Calm - 10SM
01:35
Overcast
27°F / -3°C 25°F / -4°C 93% 30.12 in
(1020 mb)
Calm - 10SM
01:15
Overcast
27°F / -3°C 23°F / -5°C 86% 30.12 in
(1020 mb)
Calm - 10SM
00:55
Overcast
27°F / -3°C 23°F / -5°C 86% 30.12 in
(1020 mb)
Calm - 10SM
00:35
Overcast
27°F / -3°C 23°F / -5°C 86% 30.12 in
(1020 mb)
Calm - 10SM
00:15
Overcast
27°F / -3°C 23°F / -5°C 86% 30.12 in
(1020 mb)
Calm - 10SM
Time Weather Temperature Dewpoint Humidity Pressure Winds Precip Visibility


Weather for websites

WeatherForYou.com, LLC is not responsible for any damages or problems caused by this service. Current weather conditions are obtained from the closest station including government and personal stations which may have varying degrees of accuracy. Weather forecasts are derived from the NOAA NDFD. Like all things, this site belongs to Jesus Christ... He just trusts me to maintain it. If you have any questions or comments email webmaster@weatherforyou.com

Copyright © 2014, WeatherForYou.com LLC. All rights reserved.